Time,TemperatureF,DewpointF,PressureIn,WindDirection,WindDirectionDegrees,WindSpeedMPH,WindSpeedGustMPH,Humidity,HourlyPrecipIn,Conditions,Clouds,dailyrainin,SoftwareType,DateUTC
2013-04-01 00:03:00,46.8,38.9,29.87,NE,45,0.0,0.0,74,0.00,,,0.00,WUHU21623XXSP,2013-04-01 05:03:00,
2013-04-01 00:08:00,46.2,38.4,29.87,NE,45,0.0,0.0,74,0.00,,,0.00,WUHU21623XXSP,2013-04-01 05:08:00,
2013-04-01 00:13:00,46.0,38.6,29.87,NE,45,0.0,0.0,75,0.00,,,0.00,WUHU21623XXSP,2013-04-01 05:13:00,
2013-04-01 00:18:00,45.7,38.2,29.88,NE,45,0.0,0.0,75,0.00,,,0.00,WUHU21623XXSP,2013-04-01 05:18:00,
2013-04-01 00:23:00,45.3,38.2,29.88,NE,45,0.0,0.0,76,0.00,,,0.00,WUHU21623XXSP,2013-04-01 05:23:00,
2013-04-01 00:28:00,45.1,38.0,29.88,NE,45,0.0,0.0,76,0.00,,,0.00,WUHU21623XXSP,2013-04-01 05:28:00,
2013-04-01 00:33:00,44.8,38.0,29.88,NE,45,0.0,0.0,77,0.00,,,0.00,WUHU21623XXSP,2013-04-01 05:33:00,
2013-04-01 00:38:00,44.4,37.6,29.87,NE,45,0.0,0.0,77,0.00,,,0.00,WUHU21623XXSP,2013-04-01 05:38:00,
2013-04-01 00:43:00,44.4,37.6,29.88,NE,45,0.0,0.0,77,0.00,,,0.00,WUHU21623XXSP,2013-04-01 05:43:00,
2013-04-01 00:48:00,44.1,37.6,29.88,NE,45,0.0,0.0,78,0.00,,,0.00,WUHU21623XXSP,2013-04-01 05:48:00,
2013-04-01 00:53:00,43.9,37.4,29.88,NE,45,0.0,0.0,78,0.00,,,0.00,WUHU21623XXSP,2013-04-01 05:53:00,
2013-04-01 00:58:00,43.5,37.1,29.87,NE,45,0.0,0.0,78,0.00,,,0.00,WUHU21623XXSP,2013-04-01 05:58:00,
2013-04-01 01:03:00,43.5,37.4,29.87,NE,45,0.0,0.0,79,0.00,,,0.00,WUHU21623XXSP,2013-04-01 06:03:00,
2013-04-01 01:08:00,43.3,37.2,29.87,NE,45,0.0,0.0,79,0.00,,,0.00,WUHU21623XXSP,2013-04-01 06:08:00,
2013-04-01 01:13:00,43.5,37.8,29.87,NE,45,0.0,0.0,80,0.00,,,0.00,WUHU21623XXSP,2013-04-01 06:13:00,
2013-04-01 01:18:00,43.5,38.1,29.87,NE,45,0.0,0.0,81,0.00,,,0.00,WUHU21623XXSP,2013-04-01 06:18:00,
2013-04-01 01:23:00,43.3,37.6,29.87,NE,45,0.0,0.0,80,0.00,,,0.00,WUHU21623XXSP,2013-04-01 06:23:00,
2013-04-01 01:28:00,43.0,37.2,29.88,NE,45,0.0,0.0,80,0.00,,,0.00,WUHU21623XXSP,2013-04-01 06:28:00,
2013-04-01 01:33:00,42.6,37.2,29.88,NE,45,0.0,0.0,81,0.00,,,0.00,WUHU21623XXSP,2013-04-01 06:33:00,
2013-04-01 01:38:00,42.4,37.0,29.88,NE,45,0.0,0.0,81,0.00,,,0.00,WUHU21623XXSP,2013-04-01 06:38:00,
2013-04-01 01:43:00,42.4,37.0,29.88,NE,45,0.0,0.0,81,0.00,,,0.00,WUHU21623XXSP,2013-04-01 06:43:00,
2013-04-01 01:48:00,42.1,36.6,29.88,NE,45,0.0,0.0,81,0.00,,,0.00,WUHU21623XXSP,2013-04-01 06:48:00,
2013-04-01 01:53:00,42.1,36.9,29.88,NE,45,0.0,0.0,82,0.00,,,0.00,WUHU21623XXSP,2013-04-01 06:53:00,
2013-04-01 01:58:00,41.9,36.8,29.88,NE,45,0.0,0.0,82,0.00,,,0.00,WUHU21623XXSP,2013-04-01 06:58:00,
2013-04-01 02:03:00,41.7,36.6,29.89,NE,45,0.0,0.0,82,0.00,,,0.00,WUHU21623XXSP,2013-04-01 07:03:00,
2013-04-01 02:08:00,41.5,36.4,29.88,NE,45,0.0,0.0,82,0.00,,,0.00,WUHU21623XXSP,2013-04-01 07:08:00,
2013-04-01 02:13:00,41.5,36.7,29.89,NE,45,0.0,0.0,83,0.00,,,0.00,WUHU21623XXSP,2013-04-01 07:13:00,
2013-04-01 02:18:00,41.5,36.7,29.89,NE,45,0.0,0.0,83,0.00,,,0.00,WUHU21623XXSP,2013-04-01 07:18:00,
2013-04-01 02:23:00,41.5,36.7,29.89,NE,45,0.0,0.0,83,0.00,,,0.00,WUHU21623XXSP,2013-04-01 07:23:00,
2013-04-01 02:28:00,41.5,36.7,29.89,NE,45,0.0,0.0,83,0.00,,,0.00,WUHU21623XXSP,2013-04-01 07:28:00,
2013-04-01 02:33:00,41.4,36.5,29.90,NE,45,0.0,0.0,83,0.00,,,0.00,WUHU21623XXSP,2013-04-01 07:33:00,
2013-04-01 02:38:00,41.4,36.5,29.90,NE,45,0.0,0.0,83,0.00,,,0.00,WUHU21623XXSP,2013-04-01 07:38:00,
2013-04-01 02:43:00,41.2,36.3,29.90,NE,45,0.0,0.0,83,0.00,,,0.00,WUHU21623XXSP,2013-04-01 07:43:00,
2013-04-01 02:48:00,40.8,36.0,29.89,NE,45,0.0,0.0,83,0.00,,,0.00,WUHU21623XXSP,2013-04-01 07:48:00,
2013-04-01 02:53:00,40.8,36.3,29.90,NE,45,0.0,0.0,84,0.00,,,0.00,WUHU21623XXSP,2013-04-01 07:53:00,
2013-04-01 02:58:00,40.8,36.3,29.89,NE,45,0.0,0.0,84,0.00,,,0.00,WUHU21623XXSP,2013-04-01 07:58:00,
2013-04-01 03:03:00,40.6,36.1,29.89,NE,45,0.0,0.0,84,0.00,,,0.00,WUHU21623XXSP,2013-04-01 08:03:00,
2013-04-01 03:08:00,40.6,36.1,29.90,NE,45,0.0,0.0,84,0.00,,,0.00,WUHU21623XXSP,2013-04-01 08:08:00,
2013-04-01 03:13:00,40.5,35.9,29.89,NE,45,0.0,0.0,84,0.00,,,0.00,WUHU21623XXSP,2013-04-01 08:13:00,
2013-04-01 03:18:00,40.5,35.9,29.90,NE,45,0.0,0.0,84,0.00,,,0.00,WUHU21623XXSP,2013-04-01 08:18:00,
2013-04-01 03:23:00,40.3,36.1,29.90,NE,45,0.0,0.0,85,0.00,,,0.00,WUHU21623XXSP,2013-04-01 08:23:00,
2013-04-01 03:28:00,40.3,36.1,29.90,NE,45,0.0,0.0,85,0.00,,,0.00,WUHU21623XXSP,2013-04-01 08:28:00,
2013-04-01 03:33:00,40.3,36.1,29.91,NE,45,0.0,0.0,85,0.00,,,0.00,WUHU21623XXSP,2013-04-01 08:33:00,
2013-04-01 03:38:00,40.3,36.1,29.91,NE,45,0.0,0.0,85,0.00,,,0.00,WUHU21623XXSP,2013-04-01 08:38:00,
2013-04-01 03:43:00,39.9,35.7,29.91,NE,45,0.0,0.0,85,0.00,,,0.00,WUHU21623XXSP,2013-04-01 08:43:00,
2013-04-01 03:48:00,39.9,35.7,29.91,NE,45,0.0,0.0,85,0.00,,,0.00,WUHU21623XXSP,2013-04-01 08:48:00,
2013-04-01 03:53:00,39.6,35.4,29.91,NE,45,0.0,0.0,85,0.00,,,0.00,WUHU21623XXSP,2013-04-01 08:53:00,
2013-04-01 03:58:00,39.4,35.2,29.91,NE,45,0.0,0.0,85,0.00,,,0.00,WUHU21623XXSP,2013-04-01 08:58:00,
2013-04-01 04:03:00,39.4,35.2,29.90,NE,45,0.0,0.0,85,0.00,,,0.00,WUHU21623XXSP,2013-04-01 09:03:00,
2013-04-01 04:08:00,39.4,35.5,29.91,NE,45,0.0,0.0,86,0.00,,,0.00,WUHU21623XXSP,2013-04-01 09:08:00,
2013-04-01 04:13:00,39.4,35.5,29.91,NE,45,0.0,0.0,86,0.00,,,0.00,WUHU21623XXSP,2013-04-01 09:13:00,
2013-04-01 04:18:00,39.4,35.5,29.91,NE,45,0.0,0.0,86,0.00,,,0.00,WUHU21623XXSP,2013-04-01 09:18:00,
2013-04-01 04:23:00,39.6,36.0,29.92,NE,45,0.0,0.0,87,0.00,,,0.00,WUHU21623XXSP,2013-04-01 09:23:00,
2013-04-01 04:28:00,39.6,35.7,29.92,NE,45,0.0,0.0,86,0.00,,,0.00,WUHU21623XXSP,2013-04-01 09:28:00,
2013-04-01 04:33:00,39.4,35.5,29.92,NE,45,0.0,0.0,86,0.00,,,0.00,WUHU21623XXSP,2013-04-01 09:33:00,
2013-04-01 04:38:00,39.4,35.8,29.92,NE,45,0.0,0.0,87,0.00,,,0.00,WUHU21623XXSP,2013-04-01 09:38:00,
2013-04-01 04:43:00,39.4,35.8,29.93,NE,45,0.0,0.0,87,0.00,,,0.00,WUHU21623XXSP,2013-04-01 09:43:00,
2013-04-01 04:48:00,39.4,35.8,29.93,NE,45,0.0,0.0,87,0.00,,,0.00,WUHU21623XXSP,2013-04-01 09:48:00,
2013-04-01 04:53:00,39.4,35.8,29.93,NE,45,0.0,0.0,87,0.00,,,0.00,WUHU21623XXSP,2013-04-01 09:53:00,
2013-04-01 04:58:00,39.9,36.3,29.94,NE,45,0.0,0.0,87,0.00,,,0.00,WUHU21623XXSP,2013-04-01 09:58:00,
2013-04-01 05:03:00,40.1,36.2,29.94,NE,45,0.0,0.0,86,0.00,,,0.00,WUHU21623XXSP,2013-04-01 10:03:00,
2013-04-01 05:08:00,40.3,36.4,29.93,NE,45,0.0,0.0,86,0.00,,,0.00,WUHU21623XXSP,2013-04-01 10:08:00,
2013-04-01 05:13:00,40.6,36.7,29.94,NE,45,0.0,0.0,86,0.00,,,0.00,WUHU21623XXSP,2013-04-01 10:13:00,
2013-04-01 05:18:00,40.8,36.9,29.93,ENE,67,0.0,2.0,86,0.00,,,0.00,WUHU21623XXSP,2013-04-01 10:18:00,
2013-04-01 05:23:00,40.8,36.6,29.93,ENE,67,0.0,2.0,85,0.00,,,0.00,WUHU21623XXSP,2013-04-01 10:23:00,
2013-04-01 05:28:00,41.2,36.6,29.94,NE,45,0.0,0.0,84,0.00,,,0.00,WUHU21623XXSP,2013-04-01 10:28:00,
2013-04-01 05:33:00,42.1,36.9,29.95,ENE,67,4.3,4.7,82,0.00,,,0.00,WUHU21623XXSP,2013-04-01 10:33:00,
2013-04-01 05:38:00,42.6,36.9,29.95,ENE,67,0.0,4.9,80,0.00,,,0.00,WUHU21623XXSP,2013-04-01 10:38:00,
2013-04-01 05:43:00,42.6,36.5,29.95,East,90,0.0,4.9,79,0.00,,,0.00,WUHU21623XXSP,2013-04-01 10:43:00,
2013-04-01 05:48:00,42.6,35.9,29.95,ESE,112,0.0,6.3,77,0.00,,,0.00,WUHU21623XXSP,2013-04-01 10:48:00,
2013-04-01 05:53:00,42.4,35.4,29.96,East,90,0.0,8.7,76,0.00,,,0.00,WUHU21623XXSP,2013-04-01 10:53:00,
2013-04-01 05:58:00,42.1,34.7,29.96,ENE,67,0.0,8.7,75,0.00,,,0.00,WUHU21623XXSP,2013-04-01 10:58:00,
2013-04-01 06:03:00,41.7,34.3,29.97,ESE,112,0.0,7.4,75,0.00,,,0.00,WUHU21623XXSP,2013-04-01 11:03:00,
2013-04-01 06:08:00,41.5,34.2,29.97,SE,135,0.0,1.6,75,0.00,,,0.00,WUHU21623XXSP,2013-04-01 11:08:00,
2013-04-01 06:13:00,41.4,34.0,29.97,ENE,67,0.0,3.1,75,0.00,,,0.00,WUHU21623XXSP,2013-04-01 11:13:00,
2013-04-01 06:19:00,41.4,33.7,29.98,ENE,67,0.0,3.8,74,0.00,,,0.00,WUHU21623XXSP,2013-04-01 11:19:00,
2013-04-01 06:24:00,41.2,33.5,29.98,NE,45,2.5,5.4,74,0.00,,,0.00,WUHU21623XXSP,2013-04-01 11:24:00,
2013-04-01 06:29:00,41.0,33.0,29.98,ENE,67,0.0,5.4,73,0.00,,,0.00,WUHU21623XXSP,2013-04-01 11:29:00,
2013-04-01 06:34:00,40.8,32.8,29.99,ESE,112,0.0,6.0,73,0.00,,,0.00,WUHU21623XXSP,2013-04-01 11:34:00,
2013-04-01 06:39:00,40.8,32.8,29.99,ESE,112,0.0,7.4,73,0.00,,,0.00,WUHU21623XXSP,2013-04-01 11:39:00,
2013-04-01 06:44:00,40.8,32.8,29.99,East,90,0.0,7.4,73,0.00,,,0.00,WUHU21623XXSP,2013-04-01 11:44:00,
2013-04-01 06:49:00,40.6,32.6,29.99,East,90,0.0,6.7,73,0.00,,,0.00,WUHU21623XXSP,2013-04-01 11:49:00,
2013-04-01 06:54:00,40.5,32.4,30.00,ESE,112,0.0,6.7,73,0.00,,,0.00,WUHU21623XXSP,2013-04-01 11:54:00,
2013-04-01 06:59:00,40.3,32.3,30.00,East,90,0.0,6.9,73,0.00,,,0.00,WUHU21623XXSP,2013-04-01 11:59:00,
2013-04-01 07:04:00,40.3,32.3,30.01,ENE,67,0.0,6.9,73,0.00,,,0.00,WUHU21623XXSP,2013-04-01 12:04:00,
2013-04-01 07:09:00,40.1,32.1,30.01,ESE,112,0.0,6.9,73,0.00,,,0.00,WUHU21623XXSP,2013-04-01 12:09:00,
2013-04-01 07:14:00,40.3,32.3,30.01,ENE,67,0.0,6.9,73,0.00,,,0.00,WUHU21623XXSP,2013-04-01 12:14:00,
2013-04-01 07:19:00,40.1,32.4,30.02,ENE,67,0.0,0.0,74,0.00,,,0.00,WUHU21623XXSP,2013-04-01 12:19:00,
2013-04-01 07:24:00,39.9,32.3,30.02,ENE,67,0.0,5.1,74,0.00,,,0.00,WUHU21623XXSP,2013-04-01 12:24:00,
2013-04-01 07:29:00,40.1,32.4,30.02,ESE,112,0.0,5.1,74,0.00,,,0.00,WUHU21623XXSP,2013-04-01 12:29:00,
2013-04-01 07:34:00,40.5,32.8,30.02,East,90,3.8,5.1,74,0.00,,,0.00,WUHU21623XXSP,2013-04-01 12:34:00,
2013-04-01 07:39:00,40.6,32.6,30.01,ESE,112,0.0,5.4,73,0.00,,,0.00,WUHU21623XXSP,2013-04-01 12:39:00,
2013-04-01 07:44:00,40.8,32.8,30.02,ESE,112,0.0,6.9,73,0.00,,,0.00,WUHU21623XXSP,2013-04-01 12:44:00,
2013-04-01 07:49:00,41.2,32.8,30.02,ESE,112,0.7,6.9,72,0.00,,,0.00,WUHU21623XXSP,2013-04-01 12:49:00,
2013-04-01 07:54:00,41.5,32.9,30.02,ESE,112,0.0,8.1,71,0.00,,,0.00,WUHU21623XXSP,2013-04-01 12:54:00,
2013-04-01 07:59:00,41.7,33.0,30.02,East,90,6.5,8.1,71,0.00,,,0.00,WUHU21623XXSP,2013-04-01 12:59:00,
2013-04-01 08:04:00,42.1,33.1,30.03,ESE,112,0.0,6.5,70,0.00,,,0.00,WUHU21623XXSP,2013-04-01 13:04:00,
2013-04-01 08:09:00,42.6,33.2,30.03,ENE,67,0.0,7.8,69,0.00,,,0.00,WUHU21623XXSP,2013-04-01 13:09:00,
2013-04-01 08:14:00,43.0,33.6,30.03,East,90,0.0,10.3,69,0.00,,,0.00,WUHU21623XXSP,2013-04-01 13:14:00,
2013-04-01 08:19:00,43.0,33.2,30.03,ESE,112,0.0,10.3,68,0.00,,,0.00,WUHU21623XXSP,2013-04-01 13:19:00,
2013-04-01 08:24:00,43.5,33.7,30.03,ENE,67,5.6,9.2,68,0.00,,,0.00,WUHU21623XXSP,2013-04-01 13:24:00,
2013-04-01 08:29:00,43.9,33.6,30.03,ESE,112,0.0,7.4,67,0.00,,,0.00,WUHU21623XXSP,2013-04-01 13:29:00,
2013-04-01 08:34:00,45.7,34.6,30.04,SE,135,4.3,8.9,65,0.00,,,0.00,WUHU21623XXSP,2013-04-01 13:34:00,
2013-04-01 08:39:00,46.0,34.1,30.04,East,90,4.5,8.9,63,0.00,,,0.00,WUHU21623XXSP,2013-04-01 13:39:00,
2013-04-01 08:44:00,45.5,34.4,30.05,East,90,1.8,8.1,65,0.00,,,0.00,WUHU21623XXSP,2013-04-01 13:44:00,
2013-04-01 08:49:00,44.4,33.7,30.05,ESE,112,0.0,8.1,66,0.00,,,0.00,WUHU21623XXSP,2013-04-01 13:49:00,
2013-04-01 08:54:00,45.7,34.2,30.05,SE,135,5.8,8.9,64,0.00,,,0.00,WUHU21623XXSP,2013-04-01 13:54:00,
2013-04-01 08:59:00,46.6,34.2,30.05,ESE,112,0.0,11.2,62,0.00,,,0.00,WUHU21623XXSP,2013-04-01 13:59:00,
2013-04-01 09:04:00,46.6,34.2,30.05,ENE,67,2.9,12.5,62,0.00,,,0.00,WUHU21623XXSP,2013-04-01 14:04:00,
2013-04-01 09:09:00,48.4,35.6,30.05,ENE,67,3.8,12.5,61,0.00,,,0.00,WUHU21623XXSP,2013-04-01 14:09:00,
2013-04-01 09:14:00,49.8,36.0,30.05,NE,45,0.0,6.7,59,0.00,,,0.00,WUHU21623XXSP,2013-04-01 14:14:00,
2013-04-01 09:19:00,51.4,37.1,30.05,ESE,112,6.9,8.3,58,0.00,,,0.00,WUHU21623XXSP,2013-04-01 14:19:00,
2013-04-01 09:24:00,52.9,36.6,30.05,NE,45,4.5,11.6,54,0.00,,,0.00,WUHU21623XXSP,2013-04-01 14:24:00,
2013-04-01 09:29:00,55.2,37.8,30.05,ENE,67,5.1,11.6,52,0.00,,,0.00,WUHU21623XXSP,2013-04-01 14:29:00,
2013-04-01 09:34:00,56.5,37.5,30.05,ENE,67,2.0,11.9,49,0.00,,,0.00,WUHU21623XXSP,2013-04-01 14:34:00,
2013-04-01 09:39:00,54.3,36.1,30.05,ESE,112,3.8,11.9,50,0.00,,,0.00,WUHU21623XXSP,2013-04-01 14:39:00,
2013-04-01 09:44:00,53.4,36.2,30.06,ESE,112,2.0,11.0,52,0.00,,,0.00,WUHU21623XXSP,2013-04-01 14:44:00,
2013-04-01 09:49:00,54.3,37.0,30.06,ESE,112,0.0,10.1,52,0.00,,,0.00,WUHU21623XXSP,2013-04-01 14:49:00,
2013-04-01 09:54:00,56.3,37.4,30.06,ENE,67,0.0,8.9,49,0.00,,,0.00,WUHU21623XXSP,2013-04-01 14:54:00,
2013-04-01 09:59:00,57.0,37.5,30.06,East,90,5.6,10.1,47,0.00,,,0.00,WUHU21623XXSP,2013-04-01 14:59:00,
2013-04-01 10:04:00,59.2,37.7,30.06,ENE,67,10.5,10.5,45,0.00,,,0.00,WUHU21623XXSP,2013-04-01 15:04:00,
2013-04-01 10:09:00,60.4,38.3,30.06,NE,45,0.0,10.5,44,0.00,,,0.00,WUHU21623XXSP,2013-04-01 15:09:00,
2013-04-01 10:14:00,61.5,38.7,30.06,SE,135,0.0,8.9,43,0.00,,,0.00,WUHU21623XXSP,2013-04-01 15:14:00,
2013-04-01 10:19:00,58.3,36.9,30.06,East,90,7.2,11.4,45,0.00,,,0.00,WUHU21623XXSP,2013-04-01 15:19:00,
2013-04-01 10:24:00,54.0,35.7,30.06,NE,45,2.2,11.4,50,0.00,,,0.00,WUHU21623XXSP,2013-04-01 15:24:00,
2013-04-01 10:29:00,52.3,35.6,30.06,NE,45,6.9,10.5,53,0.00,,,0.00,WUHU21623XXSP,2013-04-01 15:29:00,
2013-04-01 10:34:00,51.8,36.5,30.06,ENE,67,1.3,8.5,56,0.00,,,0.00,WUHU21623XXSP,2013-04-01 15:34:00,
2013-04-01 10:39:00,52.3,36.1,30.06,ESE,112,3.8,9.6,54,0.00,,,0.00,WUHU21623XXSP,2013-04-01 15:39:00,
2013-04-01 10:44:00,50.7,35.1,30.07,East,90,8.1,9.6,55,0.00,,,0.00,WUHU21623XXSP,2013-04-01 15:44:00,
2013-04-01 10:49:00,50.7,35.5,30.06,SE,135,0.0,10.3,56,0.00,,,0.00,WUHU21623XXSP,2013-04-01 15:49:00,
2013-04-01 10:54:00,55.9,38.0,30.07,ESE,112,0.0,10.3,51,0.00,,,0.00,WUHU21623XXSP,2013-04-01 15:54:00,
2013-04-01 10:59:00,58.8,39.1,30.07,ENE,67,4.7,5.6,48,0.00,,,0.00,WUHU21623XXSP,2013-04-01 15:59:00,
2013-04-01 11:04:00,60.1,39.7,30.07,NNE,22,2.9,10.3,47,0.00,,,0.00,WUHU21623XXSP,2013-04-01 16:04:00,
2013-04-01 11:09:00,61.9,40.2,30.07,NE,45,0.0,10.3,45,0.00,,,0.00,WUHU21623XXSP,2013-04-01 16:09:00,
2013-04-01 11:14:00,57.9,38.3,30.08,NE,45,0.0,7.6,48,0.00,,,0.00,WUHU21623XXSP,2013-04-01 16:14:00,
2013-04-01 11:19:00,57.0,39.1,30.08,NE,45,0.0,8.3,51,0.00,,,0.00,WUHU21623XXSP,2013-04-01 16:19:00,
2013-04-01 11:24:00,56.1,38.7,30.07,NE,45,0.0,8.3,52,0.00,,,0.00,WUHU21623XXSP,2013-04-01 16:24:00,
2013-04-01 11:29:00,54.7,36.9,30.07,ENE,67,0.9,8.9,51,0.00,,,0.00,WUHU21623XXSP,2013-04-01 16:29:00,
2013-04-01 11:34:00,54.3,37.0,30.08,NE,45,2.7,9.4,52,0.00,,,0.00,WUHU21623XXSP,2013-04-01 16:34:00,
2013-04-01 11:39:00,55.2,37.8,30.07,NNE,22,0.0,9.4,52,0.00,,,0.00,WUHU21623XXSP,2013-04-01 16:39:00,
2013-04-01 11:44:00,54.5,37.2,30.08,ENE,67,0.0,10.3,52,0.00,,,0.00,WUHU21623XXSP,2013-04-01 16:44:00,
2013-04-01 11:49:00,54.3,37.9,30.08,NE,45,4.0,10.3,54,0.00,,,0.00,WUHU21623XXSP,2013-04-01 16:49:00,
2013-04-01 11:54:00,53.6,37.3,30.08,NE,45,7.4,10.5,54,0.00,,,0.00,WUHU21623XXSP,2013-04-01 16:54:00,
2013-04-01 11:59:00,54.0,38.4,30.08,ESE,112,4.5,10.5,55,0.00,,,0.00,WUHU21623XXSP,2013-04-01 16:59:00,
2013-04-01 12:04:00,54.3,38.4,30.07,NE,45,0.0,6.9,55,0.00,,,0.00,WUHU21623XXSP,2013-04-01 17:04:00,
2013-04-01 12:09:00,54.7,37.8,30.08,NE,45,1.8,9.6,53,0.00,,,0.00,WUHU21623XXSP,2013-04-01 17:09:00,
2013-04-01 12:14:00,54.5,38.1,30.07,ENE,67,0.0,9.6,54,0.00,,,0.00,WUHU21623XXSP,2013-04-01 17:14:00,
2013-04-01 12:19:00,55.0,38.1,30.08,NE,45,8.1,9.6,53,0.00,,,0.00,WUHU21623XXSP,2013-04-01 17:19:00,
2013-04-01 12:24:00,54.3,37.9,30.07,NE,45,0.0,12.1,54,0.00,,,0.00,WUHU21623XXSP,2013-04-01 17:24:00,
2013-04-01 12:29:00,55.2,38.8,30.08,NNE,22,1.3,12.1,54,0.00,,,0.00,WUHU21623XXSP,2013-04-01 17:29:00,
2013-04-01 12:34:00,55.2,37.8,30.07,ENE,67,0.0,8.7,52,0.00,,,0.00,WUHU21623XXSP,2013-04-01 17:34:00,
2013-04-01 12:39:00,55.0,38.6,30.08,East,90,0.0,6.5,54,0.00,,,0.00,WUHU21623XXSP,2013-04-01 17:39:00,
2013-04-01 12:44:00,54.7,38.3,30.08,NNE,22,5.8,6.5,54,0.00,,,0.00,WUHU21623XXSP,2013-04-01 17:44:00,
2013-04-01 12:49:00,55.4,38.4,30.07,ESE,112,0.7,10.5,53,0.00,,,0.00,WUHU21623XXSP,2013-04-01 17:49:00,
2013-04-01 12:54:00,54.7,38.3,30.07,ENE,67,0.0,10.5,54,0.00,,,0.00,WUHU21623XXSP,2013-04-01 17:54:00,
2013-04-01 12:59:00,55.2,38.8,30.07,ESE,112,0.0,8.9,54,0.00,,,0.00,WUHU21623XXSP,2013-04-01 17:59:00,
2013-04-01 13:04:00,54.3,37.5,30.07,ENE,67,0.0,8.9,53,0.00,,,0.00,WUHU21623XXSP,2013-04-01 18:04:00,
2013-04-01 13:09:00,55.6,38.6,30.07,ENE,67,2.0,8.3,53,0.00,,,0.00,WUHU21623XXSP,2013-04-01 18:09:00,
2013-04-01 13:14:00,55.4,38.9,30.07,SE,135,0.0,8.3,54,0.00,,,0.00,WUHU21623XXSP,2013-04-01 18:14:00,
2013-04-01 13:19:00,55.2,38.3,30.07,ENE,67,0.0,7.8,53,0.00,,,0.00,WUHU21623XXSP,2013-04-01 18:19:00,
2013-04-01 13:24:00,55.9,39.5,30.07,NE,45,0.0,7.8,54,0.00,,,0.00,WUHU21623XXSP,2013-04-01 18:24:00,
2013-04-01 13:29:00,57.0,40.1,30.07,NNW,337,3.6,4.9,53,0.00,,,0.00,WUHU21623XXSP,2013-04-01 18:29:00,
2013-04-01 13:34:00,58.5,40.0,30.07,WSW,247,0.0,9.4,50,0.00,,,0.00,WUHU21623XXSP,2013-04-01 18:34:00,
2013-04-01 13:39:00,58.6,40.1,30.07,SE,135,0.0,9.4,50,0.00,,,0.00,WUHU21623XXSP,2013-04-01 18:39:00,
2013-04-01 13:44:00,57.9,39.5,30.06,ESE,112,0.0,5.1,50,0.00,,,0.00,WUHU21623XXSP,2013-04-01 18:44:00,
2013-04-01 13:49:00,57.9,39.5,30.06,NE,45,5.1,5.1,50,0.00,,,0.00,WUHU21623XXSP,2013-04-01 18:49:00,
2013-04-01 13:54:00,58.8,39.1,30.06,NE,45,8.9,8.9,48,0.00,,,0.00,WUHU21623XXSP,2013-04-01 18:54:00,
2013-04-01 13:59:00,60.3,39.9,30.07,NE,45,0.0,8.9,47,0.00,,,0.00,WUHU21623XXSP,2013-04-01 18:59:00,
2013-04-01 14:04:00,59.5,38.6,30.06,NE,45,1.1,9.4,46,0.00,,,0.00,WUHU21623XXSP,2013-04-01 19:04:00,
2013-04-01 14:09:00,58.5,38.8,30.07,SE,135,0.0,9.4,48,0.00,,,0.00,WUHU21623XXSP,2013-04-01 19:09:00,
2013-04-01 14:14:00,58.6,39.0,30.07,ENE,67,0.0,4.7,48,0.00,,,0.00,WUHU21623XXSP,2013-04-01 19:14:00,
2013-04-01 14:19:00,57.4,39.0,30.07,ENE,67,6.5,10.1,50,0.00,,,0.00,WUHU21623XXSP,2013-04-01 19:19:00,
2013-04-01 14:24:00,58.1,39.1,30.07,NE,45,3.8,10.1,49,0.00,,,0.00,WUHU21623XXSP,2013-04-01 19:24:00,
2013-04-01 14:29:00,56.5,38.1,30.07,NE,45,3.8,10.1,50,0.00,,,0.00,WUHU21623XXSP,2013-04-01 19:29:00,
2013-04-01 14:34:00,57.4,39.5,30.06,NE,45,4.5,7.2,51,0.00,,,0.00,WUHU21623XXSP,2013-04-01 19:34:00,
2013-04-01 14:39:00,57.4,38.4,30.07,NE,45,4.5,9.2,49,0.00,,,0.00,WUHU21623XXSP,2013-04-01 19:39:00,
2013-04-01 14:44:00,58.5,38.8,30.07,East,90,0.0,9.2,48,0.00,,,0.00,WUHU21623XXSP,2013-04-01 19:44:00,
2013-04-01 14:49:00,59.4,39.1,30.07,ENE,67,0.0,8.5,47,0.00,,,0.00,WUHU21623XXSP,2013-04-01 19:49:00,
2013-04-01 14:54:00,58.6,38.4,30.07,ENE,67,0.0,11.2,47,0.00,,,0.00,WUHU21623XXSP,2013-04-01 19:54:00,
2013-04-01 14:59:00,57.6,38.0,30.06,SE,135,2.5,11.2,48,0.00,,,0.00,WUHU21623XXSP,2013-04-01 19:59:00,
2013-04-01 15:04:00,56.5,37.5,30.06,NNE,22,6.5,7.2,49,0.00,,,0.00,WUHU21623XXSP,2013-04-01 20:04:00,
2013-04-01 15:09:00,56.8,38.5,30.07,NE,45,0.0,7.2,50,0.00,,,0.00,WUHU21623XXSP,2013-04-01 20:09:00,
2013-04-01 15:14:00,57.2,38.3,30.07,ENE,67,2.5,8.7,49,0.00,,,0.00,WUHU21623XXSP,2013-04-01 20:14:00,
2013-04-01 15:19:00,58.5,38.2,30.07,NE,45,0.0,8.7,47,0.00,,,0.00,WUHU21623XXSP,2013-04-01 20:19:00,
2013-04-01 15:24:00,58.8,38.6,30.07,ENE,67,3.4,10.7,47,0.00,,,0.00,WUHU21623XXSP,2013-04-01 20:24:00,
2013-04-01 15:29:00,58.8,38.6,30.07,NE,45,0.0,10.7,47,0.00,,,0.00,WUHU21623XXSP,2013-04-01 20:29:00,
2013-04-01 15:34:00,58.8,38.0,30.07,NE,45,2.5,9.4,46,0.00,,,0.00,WUHU21623XXSP,2013-04-01 20:34:00,
2013-04-01 15:39:00,57.4,37.3,30.07,NE,45,8.3,9.2,47,0.00,,,0.00,WUHU21623XXSP,2013-04-01 20:39:00,
2013-04-01 15:44:00,56.8,37.3,30.07,ENE,67,0.0,9.4,48,0.00,,,0.00,WUHU21623XXSP,2013-04-01 20:44:00,
2013-04-01 15:49:00,56.1,36.6,30.07,East,90,0.0,9.4,48,0.00,,,0.00,WUHU21623XXSP,2013-04-01 20:49:00,
2013-04-01 15:54:00,55.2,35.8,30.07,ENE,67,0.0,9.2,48,0.00,,,0.00,WUHU21623XXSP,2013-04-01 20:54:00,
2013-04-01 15:59:00,55.2,36.3,30.07,NE,45,0.0,5.6,49,0.00,,,0.00,WUHU21623XXSP,2013-04-01 20:59:00,
2013-04-01 16:04:00,55.8,35.7,30.07,NE,45,1.6,6.3,47,0.00,,,0.00,WUHU21623XXSP,2013-04-01 21:04:00,
2013-04-01 16:09:00,54.5,35.1,30.07,NE,45,0.0,9.4,48,0.00,,,0.00,WUHU21623XXSP,2013-04-01 21:09:00,
2013-04-01 16:14:00,53.8,34.5,30.07,NE,45,0.0,9.4,48,0.00,,,0.00,WUHU21623XXSP,2013-04-01 21:14:00,
2013-04-01 16:19:00,54.0,35.2,30.08,ENE,67,4.3,10.3,49,0.00,,,0.00,WUHU21623XXSP,2013-04-01 21:19:00,
2013-04-01 16:24:00,52.7,34.6,30.07,NE,45,7.8,10.3,50,0.00,,,0.00,WUHU21623XXSP,2013-04-01 21:24:00,
2013-04-01 16:29:00,52.3,34.7,30.07,ENE,67,0.0,10.3,51,0.00,,,0.00,WUHU21623XXSP,2013-04-01 21:29:00,
2013-04-01 16:34:00,51.8,33.8,30.07,ENE,67,0.0,10.3,50,0.00,,,0.00,WUHU21623XXSP,2013-04-01 21:34:00,
2013-04-01 16:39:00,52.0,34.4,30.07,ENE,67,0.0,10.3,51,0.00,,,0.00,WUHU21623XXSP,2013-04-01 21:39:00,
2013-04-01 16:44:00,52.5,33.9,30.07,East,90,1.6,8.9,49,0.00,,,0.00,WUHU21623XXSP,2013-04-01 21:44:00,
2013-04-01 16:49:00,51.6,33.6,30.07,ENE,67,0.0,8.9,50,0.00,,,0.00,WUHU21623XXSP,2013-04-01 21:49:00,
2013-04-01 16:54:00,51.6,33.6,30.07,NE,45,0.0,8.9,50,0.00,,,0.00,WUHU21623XXSP,2013-04-01 21:54:00,
2013-04-01 16:59:00,51.4,33.5,30.07,ENE,67,0.0,7.4,50,0.00,,,0.00,WUHU21623XXSP,2013-04-01 21:59:00,
2013-04-01 17:04:00,50.5,33.6,30.07,ENE,67,5.4,6.3,52,0.00,,,0.00,WUHU21623XXSP,2013-04-01 22:04:00,
2013-04-01 17:09:00,49.6,32.7,30.07,ENE,67,0.0,6.3,52,0.00,,,0.00,WUHU21623XXSP,2013-04-01 22:09:00,
2013-04-01 17:14:00,49.3,32.8,30.07,ENE,67,0.0,7.2,53,0.00,,,0.00,WUHU21623XXSP,2013-04-01 22:14:00,
2013-04-01 17:19:00,48.9,32.0,30.07,East,90,2.5,8.9,52,0.00,,,0.00,WUHU21623XXSP,2013-04-01 22:19:00,
2013-04-01 17:24:00,48.7,31.4,30.08,NE,45,1.6,8.9,51,0.00,,,0.00,WUHU21623XXSP,2013-04-01 22:24:00,
2013-04-01 17:29:00,48.4,30.6,30.07,NE,45,6.7,9.8,50,0.00,,,0.00,WUHU21623XXSP,2013-04-01 22:29:00,
2013-04-01 17:34:00,48.0,29.7,30.07,NE,45,3.6,10.5,49,0.00,,,0.00,WUHU21623XXSP,2013-04-01 22:34:00,
2013-04-01 17:39:00,48.0,30.2,30.07,ENE,67,0.0,10.5,50,0.00,,,0.00,WUHU21623XXSP,2013-04-01 22:39:00,
2013-04-01 17:44:00,48.0,29.7,30.07,NE,45,0.0,9.2,49,0.00,,,0.00,WUHU21623XXSP,2013-04-01 22:44:00,
2013-04-01 17:49:00,47.8,29.0,30.07,ENE,67,0.7,9.2,48,0.00,,,0.00,WUHU21623XXSP,2013-04-01 22:49:00,
2013-04-01 17:54:00,47.7,28.8,30.07,East,90,0.0,6.7,48,0.00,,,0.00,WUHU21623XXSP,2013-04-01 22:54:00,
2013-04-01 17:59:00,47.3,27.9,30.06,ENE,67,0.0,5.8,47,0.00,,,0.00,WUHU21623XXSP,2013-04-01 22:59:00,
2013-04-01 18:04:00,47.1,27.2,30.06,NE,45,3.4,10.5,46,0.00,,,0.00,WUHU21623XXSP,2013-04-01 23:04:00,
2013-04-01 18:09:00,47.1,27.8,30.06,NE,45,4.3,10.5,47,0.00,,,0.00,WUHU21623XXSP,2013-04-01 23:09:00,
2013-04-01 18:14:00,47.1,27.8,30.05,ENE,67,0.0,7.2,47,0.00,,,0.00,WUHU21623XXSP,2013-04-01 23:14:00,
2013-04-01 18:19:00,46.8,27.5,30.05,East,90,0.0,6.9,47,0.00,,,0.00,WUHU21623XXSP,2013-04-01 23:19:00,
2013-04-01 18:24:00,46.8,28.0,30.05,East,90,0.0,6.0,48,0.00,,,0.00,WUHU21623XXSP,2013-04-01 23:24:00,
2013-04-01 18:29:00,46.8,28.0,30.05,ENE,67,0.0,4.5,48,0.00,,,0.00,WUHU21623XXSP,2013-04-01 23:29:00,
2013-04-01 18:34:00,46.9,28.2,30.06,NE,45,0.0,4.5,48,0.00,,,0.00,WUHU21623XXSP,2013-04-01 23:34:00,
2013-04-01 18:39:00,46.6,27.8,30.06,NE,45,0.0,8.7,48,0.00,,,0.00,WUHU21623XXSP,2013-04-01 23:39:00,
2013-04-01 18:44:00,46.6,27.8,30.06,East,90,0.0,8.7,48,0.00,,,0.00,WUHU21623XXSP,2013-04-01 23:44:00,
2013-04-01 18:49:00,46.6,27.8,30.06,ESE,112,0.0,6.5,48,0.00,,,0.00,WUHU21623XXSP,2013-04-01 23:49:00,
2013-04-01 18:54:00,46.2,28.1,30.07,NE,45,0.0,6.5,49,0.00,,,0.00,WUHU21623XXSP,2013-04-01 23:54:00,
2013-04-01 18:59:00,46.6,28.9,30.06,NE,45,0.0,6.3,50,0.00,,,0.00,WUHU21623XXSP,2013-04-01 23:59:00,
2013-04-01 19:04:00,46.2,28.6,30.05,East,90,0.0,10.1,50,0.00,,,0.00,WUHU21623XXSP,2013-04-02 00:04:00,
2013-04-01 19:09:00,46.0,28.4,30.04,ESE,112,0.0,10.1,50,0.00,,,0.00,WUHU21623XXSP,2013-04-02 00:09:00,
2013-04-01 19:14:00,46.0,28.9,30.05,ENE,67,0.0,3.8,51,0.00,,,0.00,WUHU21623XXSP,2013-04-02 00:14:00,
2013-04-01 19:19:00,45.9,28.7,30.05,NE,45,0.0,7.2,51,0.00,,,0.00,WUHU21623XXSP,2013-04-02 00:19:00,
2013-04-01 19:24:00,45.7,28.6,30.04,East,90,0.0,7.2,51,0.00,,,0.00,WUHU21623XXSP,2013-04-02 00:24:00,
2013-04-01 19:29:00,45.3,28.2,30.03,East,90,2.0,6.3,51,0.00,,,0.00,WUHU21623XXSP,2013-04-02 00:29:00,
2013-04-01 19:34:00,45.0,28.4,30.02,NE,45,4.3,7.6,52,0.00,,,0.00,WUHU21623XXSP,2013-04-02 00:34:00,
2013-04-01 19:39:00,44.8,28.2,30.02,ESE,112,0.0,7.6,52,0.00,,,0.00,WUHU21623XXSP,2013-04-02 00:39:00,
2013-04-01 19:44:00,44.8,28.2,30.04,ENE,67,0.0,6.9,52,0.00,,,0.00,WUHU21623XXSP,2013-04-02 00:44:00,
2013-04-01 19:49:00,44.4,27.9,30.04,ENE,67,0.0,6.9,52,0.00,,,0.00,WUHU21623XXSP,2013-04-02 00:49:00,
2013-04-01 19:54:00,44.2,28.1,30.04,NE,45,0.0,3.4,53,0.00,,,0.00,WUHU21623XXSP,2013-04-02 00:54:00,
2013-04-01 19:59:00,43.9,27.8,30.04,NE,45,1.3,7.8,53,0.00,,,0.00,WUHU21623XXSP,2013-04-02 00:59:00,
2013-04-01 20:04:00,43.9,27.8,30.04,ENE,67,0.0,7.8,53,0.00,,,0.00,WUHU21623XXSP,2013-04-02 01:04:00,
2013-04-01 20:09:00,43.9,27.8,30.05,NE,45,0.0,3.8,53,0.00,,,0.00,WUHU21623XXSP,2013-04-02 01:09:00,
2013-04-01 20:14:00,43.9,27.8,30.04,ENE,67,0.0,6.9,53,0.00,,,0.00,WUHU21623XXSP,2013-04-02 01:14:00,
2013-04-01 20:19:00,43.9,27.4,30.04,NE,45,4.5,6.9,52,0.00,,,0.00,WUHU21623XXSP,2013-04-02 01:19:00,
2013-04-01 20:24:00,43.7,27.2,30.06,NE,45,0.0,7.6,52,0.00,,,0.00,WUHU21623XXSP,2013-04-02 01:24:00,
2013-04-01 20:29:00,43.7,27.2,30.05,ENE,67,0.0,7.6,52,0.00,,,0.00,WUHU21623XXSP,2013-04-02 01:29:00,
2013-04-01 20:34:00,43.5,27.0,30.04,East,90,0.0,7.4,52,0.00,,,0.00,WUHU21623XXSP,2013-04-02 01:34:00,
2013-04-01 20:39:00,43.5,27.0,30.04,NE,45,0.0,5.6,52,0.00,,,0.00,WUHU21623XXSP,2013-04-02 01:39:00,
2013-04-01 20:44:00,43.3,26.4,30.05,NE,45,0.0,6.3,51,0.00,,,0.00,WUHU21623XXSP,2013-04-02 01:44:00,
2013-04-01 20:49:00,43.5,26.6,30.06,NE,45,0.0,6.3,51,0.00,,,0.00,WUHU21623XXSP,2013-04-02 01:49:00,
2013-04-01 20:54:00,43.3,26.4,30.06,NE,45,3.1,5.4,51,0.00,,,0.00,WUHU21623XXSP,2013-04-02 01:54:00,
2013-04-01 20:59:00,43.3,26.4,30.06,NE,45,0.0,5.6,51,0.00,,,0.00,WUHU21623XXSP,2013-04-02 01:59:00,
2013-04-01 21:04:00,43.3,26.4,30.07,NE,45,2.5,6.9,51,0.00,,,0.00,WUHU21623XXSP,2013-04-02 02:04:00,
2013-04-01 21:09:00,43.5,26.6,30.07,ENE,67,0.0,8.7,51,0.00,,,0.00,WUHU21623XXSP,2013-04-02 02:09:00,
2013-04-01 21:14:00,43.5,26.6,30.07,ENE,67,0.0,8.7,51,0.00,,,0.00,WUHU21623XXSP,2013-04-02 02:14:00,
2013-04-01 21:19:00,43.5,26.2,30.08,NNE,22,0.0,3.1,50,0.00,,,0.00,WUHU21623XXSP,2013-04-02 02:19:00,
2013-04-01 21:24:00,43.5,26.6,30.08,NE,45,0.0,9.2,51,0.00,,,0.00,WUHU21623XXSP,2013-04-02 02:24:00,
2013-04-01 21:29:00,43.3,26.4,30.08,NE,45,0.0,9.2,51,0.00,,,0.00,WUHU21623XXSP,2013-04-02 02:29:00,
2013-04-01 21:34:00,43.3,26.4,30.09,NE,45,0.0,5.8,51,0.00,,,0.00,WUHU21623XXSP,2013-04-02 02:34:00,
2013-04-01 21:40:00,43.3,26.4,30.09,ENE,67,0.0,8.1,51,0.00,,,0.00,WUHU21623XXSP,2013-04-02 02:40:00,
2013-04-01 21:45:00,43.2,26.7,30.09,NE,45,5.4,8.1,52,0.00,,,0.00,WUHU21623XXSP,2013-04-02 02:45:00,
2013-04-01 21:50:00,43.0,26.5,30.09,NE,45,0.0,7.8,52,0.00,,,0.00,WUHU21623XXSP,2013-04-02 02:50:00,
2013-04-01 21:55:00,43.0,26.5,30.10,NE,45,6.9,10.7,52,0.00,,,0.00,WUHU21623XXSP,2013-04-02 02:55:00,
2013-04-01 22:00:00,42.6,26.6,30.10,NE,45,1.8,10.7,53,0.00,,,0.00,WUHU21623XXSP,2013-04-02 03:00:00,
2013-04-01 22:05:00,43.0,27.0,30.10,NE,45,0.0,5.8,53,0.00,,,0.00,WUHU21623XXSP,2013-04-02 03:05:00,
2013-04-01 22:10:00,42.8,26.8,30.10,NE,45,0.0,6.7,53,0.00,,,0.00,WUHU21623XXSP,2013-04-02 03:10:00,
2013-04-01 22:15:00,42.6,26.6,30.11,NE,45,9.6,9.6,53,0.00,,,0.00,WUHU21623XXSP,2013-04-02 03:15:00,
2013-04-01 22:20:00,42.6,26.2,30.11,NE,45,0.0,10.3,52,0.00,,,0.00,WUHU21623XXSP,2013-04-02 03:20:00,
2013-04-01 22:25:00,42.4,26.0,30.11,NE,45,0.0,10.3,52,0.00,,,0.00,WUHU21623XXSP,2013-04-02 03:25:00,
2013-04-01 22:30:00,42.6,25.8,30.11,NE,45,5.6,9.6,51,0.00,,,0.00,WUHU21623XXSP,2013-04-02 03:30:00,
2013-04-01 22:35:00,42.4,26.0,30.10,East,90,0.0,9.6,52,0.00,,,0.00,WUHU21623XXSP,2013-04-02 03:35:00,
2013-04-01 22:40:00,42.4,26.5,30.11,ENE,67,0.0,8.5,53,0.00,,,0.00,WUHU21623XXSP,2013-04-02 03:40:00,
2013-04-01 22:45:00,42.4,26.9,30.11,NE,45,0.0,7.6,54,0.00,,,0.00,WUHU21623XXSP,2013-04-02 03:45:00,
2013-04-01 22:50:00,42.1,26.5,30.11,ENE,67,0.0,11.4,54,0.00,,,0.00,WUHU21623XXSP,2013-04-02 03:50:00,
2013-04-01 22:55:00,41.9,26.4,30.11,ENE,67,0.0,11.4,54,0.00,,,0.00,WUHU21623XXSP,2013-04-02 03:55:00,
2013-04-01 23:00:00,41.9,26.4,30.11,NE,45,2.5,10.5,54,0.00,,,0.00,WUHU21623XXSP,2013-04-02 04:00:00,
2013-04-01 23:05:00,41.9,26.4,30.11,NE,45,0.0,10.5,54,0.00,,,0.00,WUHU21623XXSP,2013-04-02 04:05:00,
2013-04-01 23:10:00,41.9,25.9,30.11,NE,45,4.3,10.5,53,0.00,,,0.00,WUHU21623XXSP,2013-04-02 04:10:00,
2013-04-01 23:15:00,41.9,26.4,30.10,NE,45,0.0,9.2,54,0.00,,,0.00,WUHU21623XXSP,2013-04-02 04:15:00,
2013-04-01 23:20:00,41.7,26.2,30.11,ENE,67,0.0,6.7,54,0.00,,,0.00,WUHU21623XXSP,2013-04-02 04:20:00,
2013-04-01 23:25:00,41.7,26.7,30.11,NE,45,0.0,7.6,55,0.00,,,0.00,WUHU21623XXSP,2013-04-02 04:25:00,
2013-04-01 23:30:00,41.4,26.7,30.10,ENE,67,0.0,7.6,56,0.00,,,0.00,WUHU21623XXSP,2013-04-02 04:30:00,
2013-04-01 23:35:00,41.0,26.4,30.10,ESE,112,0.0,7.8,56,0.00,,,0.00,WUHU21623XXSP,2013-04-02 04:35:00,
2013-04-01 23:40:00,41.0,26.9,30.09,ENE,67,0.0,7.8,57,0.00,,,0.00,WUHU21623XXSP,2013-04-02 04:40:00,
2013-04-01 23:45:00,41.0,26.9,30.09,ESE,112,2.7,7.6,57,0.00,,,0.00,WUHU21623XXSP,2013-04-02 04:45:00,
2013-04-01 23:50:00,41.0,26.9,30.09,East,90,0.0,6.0,57,0.00,,,0.00,WUHU21623XXSP,2013-04-02 04:50:00,
2013-04-01 23:55:00,41.0,27.3,30.09,ENE,67,0.0,6.0,58,0.00,,,0.00,WUHU21623XXSP,2013-04-02 04:55:00,